Regional Weather Roundup
Issued by NWS

Home | Current Version | Previous Version | Graphics & Text | Print | Product List | Glossary Off
Versions: 1 2 3 4 5 6 7 8 9 10 11 12 13 14 15 16 17 18 19 20 21 22 23 24 25 26 27 28 29 30 31 32 33 34 35 36 37 38 39 40 41 42 43 44 45 46 47 48 49 50

000
ASUS43 KMKX 190210
RWRWI

WISCONSIN REGIONAL WEATHER ROUNDUP
NATIONAL WEATHER SERVICE MILWAUKEE/SULLIVAN WI
800 PM CST WED JAN 18 2017

NOTE: "FAIR" INDICATES FEW OR NO CLOUDS BELOW 12,000 FEET WITH NO
SIGNIFICANT WEATHER AND/OR OBSTRUCTIONS TO VISIBILITY.

WIZ001-002-006>008-014>016-023>028-190300-
NORTHWEST WISCONSIN

CITY           SKY/WX    TMP DP  RH WIND       PRES   REMARKS
SUPERIOR ARPT  CLOUDY    32  27  81 SW3       29.82S
ASHLAND        CLOUDY    36  28  73 SW12      29.83S WCI  28
HAYWARD        CLOUDY    31  27  85 S3        29.85S
SIREN          CLOUDY    32  29  90 S5        29.85F WCI  27
CUMBERLAND     CLOUDY    28  27  93 S7        29.86S FOG     WCI  21
RICE LAKE      CLOUDY    31  29  92 SE6       29.89S FOG     WCI  26
CHETEK         CLOUDY    31  29  94 S3        29.88S FOG
LADYSMITH      CLOUDY    33  30  89 S3        29.90S
EAU CLAIRE     CLOUDY    31  29  92 S5        29.89S FOG     WCI  26
MENOMONIE      CLOUDY    33  31  92 MISG      29.89F
NEW RICHMOND   CLOUDY    32  31  96 SE5       29.87S WCI  27
OSCEOLA        CLOUDY    33  33 100 SE6       29.89S WCI  27
$$

WIZ003>005-009-010-017-018-190300-
NORTH CENTRAL WISCONSIN

CITY           SKY/WX    TMP DP  RH WIND       PRES   REMARKS
MANITOWISH WTR CLOUDY    31  28  86 SW5       29.83S WCI  27
ARBOR VITAE    CLOUDY    36  31  82 SW7       29.84S WCI  31
WOODRUFF       CLOUDY    36  31  82 SW7       29.84S WCI  31
RHINELANDER    CLOUDY    33  29  85 SW9       29.86R WCI  25
EAGLE RIVER    CLOUDY    33  27  79 SW5       29.83S WCI  28
LAND O LAKES   CLOUDY    33  28  81 CALM      29.85R
PHILLIPS       CLOUDY    25  25 100 CALM      29.87R
TOMAHAWK       CLOUDY    28  26  94 CALM      29.88S
MEDFORD        CLOUDY    31  28  88 SW5       29.88S WCI  26
MERRILL        CLOUDY    32  30  92 SW5         N/A  WCI  27
$$

WIZ029-030-035-036-043>047-190300-
CENTRAL WISCONSIN

CITY           SKY/WX    TMP DP  RH WIND       PRES   REMARKS
WAUSAU         CLOUDY    33  29  85 S5        29.89R WCI  29
MOSINEE        CLEAR     32  30  93 SW9       29.91R WCI  24
MARSHFIELD     CLOUDY    31  27  85 SW7       29.89S WCI  24
STEVENS POINT  CLEAR     31  29  92 SW6       29.93R WCI  26
WAUPACA        CLEAR     34  30  84 CALM      29.94S
WAUTOMA        CLOUDY    32  29  88 SW8       29.95F WCI  25
WISC RAPIDS    CLOUDY    32  30  92 SW8       29.94S WCI  25
CAMP DOUGLAS   PTCLDY    34  30  86 S10       29.94F WCI  26
$$

WIZ011>013-019>022-031-037>040-048>050-190300-
NORTHEAST WISCONSIN

CITY           SKY/WX    TMP DP  RH WIND       PRES   REMARKS
ANTIGO         CLOUDY    30  28  95 W6        29.88S WCI  24
SHAWANO        CLEAR     37  31  78 SW6       29.91R WCI  33
OCONTO         CLEAR     34  30  86 SW5       29.90R WCI  30
STURGEON BAY   CLEAR     34  30  85 SW10      29.91S WCI  26
GREEN BAY      CLEAR     35  32  88 SW9       29.92S WCI  28
MANITOWOC      CLEAR     34  29  82 SW8       29.94F WCI  27
APPLETON       CLEAR     32  30  93 SW14      29.92S WCI  22
CLINTONVILLE   CLEAR     34  30  86 SW7       29.92R WCI  28
OSHKOSH        CLEAR     32  29  88 SW12      29.94S WCI  23
$$

WIZ032>034-041-042-053>061-190300-
SOUTHWEST WISCONSIN

CITY           SKY/WX    TMP DP  RH WIND       PRES   REMARKS
LA CROSSE      CLOUDY    36  31  82 S9        29.96F WCI  29
SPARTA         CLOUDY    32  30  93 S7        29.96F WCI  26
VIROQUA        CLOUDY    32  32 100 SW10G17   29.96S WCI  23
BOSCOBEL       CLOUDY    35  31  85 SW6       30.01F WCI  30
PRAIRIE DU CHI CLOUDY    34  32  91 CALM      30.00F FOG
PLATTEVILLE    CLOUDY    33  33 100 S7        30.01F WCI  27
$$

WIZ056-057-062-063-064-067-068-190300-
SOUTH CENTRAL WISCONSIN

CITY           SKY/WX    TMP DP  RH WIND       PRES   REMARKS
REEDSBURG      NOT AVBL
BARABOO/DELLS  CLOUDY    32  30  93 W8        29.97S WCI  25
LONE ROCK      CLOUDY    33  30  88 SW5       30.02S FOG     WCI  29
MINERAL POINT  CLOUDY    34  34 100 S10       30.00S FOG     WCI  26
MADISON        CLOUDY    33  30  88 S10       30.01S FOG     WCI  25
MIDDLETON      CLOUDY    33  33 100 SW12      30.01R WCI  25
WATERTOWN      CLOUDY    33  33 100 SW13      29.99F WCI  23
MONROE         CLOUDY    32  32 100 S10G16    30.01F FOG     WCI  24
JANESVILLE     CLOUDY    34  34 100 SW13      30.04S FOG     WCI  25
$$

WIZ051-052-058>065-066-070>072-190300-
SOUTHEAST WISCONSIN

CITY           SKY/WX    TMP DP  RH WIND       PRES   REMARKS
MILWAUKEE      CLOUDY    34  30  85 SW12      30.01F FOG     WCI  25
WAUKESHA       CLOUDY    30  28  93 SW9G16    30.01F FOG     WCI  22
MILWAUKEE/TIMM CLOUDY    32  28  86 SW10      30.01F WCI  24
RACINE         CLOUDY    34  30  85 SW8       30.04F WCI  27
KENOSHA        CLOUDY    34  31  88 SW12      30.04S WCI  25
FOND DU LAC    PTCLDY    33  28  81 SW14G21   29.97R WCI  23
SHEBOYGAN      CLEAR     33  29  85 SW10      29.96S WCI  25
WEST BEND      CLEAR     32  32 100 SW7       29.98S WCI  26
JUNEAU         CLOUDY    32  31  96 S12       29.99F FOG     WCI  23
$$

LSZ147-162-190300-
LAKE SUPERIOR

STATION/POSITION TIME  TEMP    WIND        PRES    WAVE
                       AIR SEA DIR/SP/G            HT/PER
                 (UTC) (F)     (DEG/KT/KT) (MB)    (FT/S)
DEVILS ISLAND    0100   36     220/ 11/ 12 1010.0F
PORT WING        0040   37     190/  4/  5 1010.2R
SAXON HARBOR     0030   40     200/  5/ 10 1009.8R
$$

LMZ867-665-643>646-190300-
LAKE MICHIGAN

STATION/POSITION TIME  TEMP    WIND        PRES    WAVE
                       AIR SEA DIR/SP/G            HT/PER
                 (UTC) (F)     (DEG/KT/KT) (MB)    (FT/S)
NORTHPORT PIER   0040   35     170/  1/  5 1011.9F
SISTER BAY       0150   35     230/  9/ 12   N/A
KEWAUNEE LAKESHO 0142   35     230/  5/  8 1013.1R
SHEBOYGAN LAKESH 0100   35     220/ 13/ 15 1015.1R
PORT WASHINGTON  0030   33     210/  7/ 15 1016.3F
MILWAUKEE LAKESH 0150   34     220/ 12/ 14   N/A
KENOSHA   LAKESH 0100   34     230/  6/ 13 1017.6
$$

TC  - TEMPERATURE IN CELSIUS
VSB - VISIBILITY IN STATUTE MILES
WCI - WIND CHILL INDEX
HX  - HEAT INDEX





USA.gov is the U.S. government's official web portal to all federal, state and local government web resources and services.